Pula, Croatia

8:12 PM CEST on May 28, 2017 (GMT +0200)
Pula

Weather History for LDPL - October, 2012

Change the Weather History Date:

Thursday, October 25, 2012

  Actual Average Record
Temperature  
Mean Temperature 56 °F -  
Max Temperature 67 °F - - ()
Min Temperature 44 °F - - ()
Degree Days  
Heating Degree Days 10    
Growing Degree Days 6 (Base 50)    
Moisture  
Dew Point 49 °F    
Average Humidity 78    
Maximum Humidity 100    
Minimum Humidity 34    
Precipitation  
Precipitation 0.00 in - - ()
Sea Level Pressure  
Sea Level Pressure 29.93 in    
Wind  
Wind Speed 3 mph ()    
Max Wind Speed 7 mph    
Max Gust Speed -    
Visibility 6.5 miles    
Events      
T = Trace of Precipitation, MM = Missing Value Source: Averaged Metar Reports

Daily Weather History Graph

Daily Weather History Graph

Search for Another Location

Airport or City:

Trip Planner

Search our weather history database for the weather conditions in past years. The results will help you decide how hot, cold, wet, or windy it might be!

Date:

Astronomy

Oct. 25, 2012 Rise Set
Actual Time 7:33 AM CEST 6:02 PM CEST
Civil Twilight 7:03 AM CEST 6:32 PM CEST
Nautical Twilight 6:28 AM CEST 7:06 PM CEST
Astronomical Twilight 5:55 AM CEST 7:40 PM CEST
Moon 3:48 PM CEST (10/25) 3:02 AM CEST (10/25)
Length of Visible Light 11h 29m
Length of Day
10h 29m
Waxing Gibbous, 82% of the Moon is Illuminated
Oct 25
Waxing Gibbous
Oct 29
Full
Nov 7
Last Quarter
Nov 13
New
Nov 20
First Quarter

Hourly Weather History & Observations

Time (CEST) Temp. Windchill Dew Point Humidity Pressure Visibility Wind Dir Wind Speed Gust Speed Precip Events Conditions
12:00 AM 53.6 °F - 50.0 °F 88% 29.98 in - North 4.6 mph - N/A   Clear
12:30 AM 53.6 °F - 48.2 °F 82% 29.98 in - Variable 3.5 mph - N/A   Clear
1:00 AM 51.8 °F - 46.4 °F 82% 29.98 in - Calm Calm - N/A   Clear
1:30 AM 50.0 °F - 46.4 °F 87% 29.98 in - Variable 3.5 mph - N/A   Clear
2:00 AM 48.2 °F - 44.6 °F 87% 29.98 in - Variable 1.2 mph - N/A   Clear
2:30 AM 48.2 °F - 44.6 °F 87% 29.98 in - Variable 2.3 mph - N/A   Clear
3:00 AM 51.8 °F - 48.2 °F 88% 29.98 in - Variable 3.5 mph - N/A   Clear
3:30 AM 50.0 °F - 46.4 °F 87% 29.98 in - Variable 2.3 mph - N/A   Unknown
4:00 AM 48.2 °F - 44.6 °F 87% 29.98 in - Variable 3.5 mph - N/A   Clear
4:30 AM 50.0 °F - 46.4 °F 87% 29.95 in - Variable 2.3 mph - N/A   Clear
5:00 AM 68 °F - 46 °F 34% 29.98 in 12 mi ENE 2.2 mph - -  
5:00 AM 50.0 °F - 46.4 °F 87% 29.95 in - Variable 3.5 mph - N/A   Clear
5:30 AM 50.0 °F - 46.4 °F 87% 29.95 in - Variable 2.3 mph - N/A   Unknown
6:00 AM 46 °F - 43 °F 84% 29.97 in 5 mi NE 2.2 mph - -   Mist
6:00 AM 46.4 °F - 42.8 °F 87% 29.95 in 5.0 mi Variable 1.2 mph - N/A   Unknown
6:30 AM 46.4 °F - 44.6 °F 93% 29.95 in - Variable 2.3 mph - N/A   Clear
7:00 AM 44.6 °F 42.2 °F 42.8 °F 93% 29.95 in - East 4.6 mph - N/A   Clear
7:30 AM 48.2 °F - 46.4 °F 93% 29.95 in - Variable 2.3 mph - N/A   Clear
8:00 AM 47 °F - 45 °F 92% 29.97 in 6 mi ENE 2.2 mph - -   Clear
8:00 AM 46.4 °F - 44.6 °F 93% 29.95 in - Variable 2.3 mph - N/A   Clear
8:30 AM 50.0 °F - 50.0 °F 100% 29.95 in - Variable 2.3 mph - N/A   Clear
9:00 AM 53.6 °F - 51.8 °F 94% 29.95 in - Calm Calm - N/A   Clear
9:30 AM 59.0 °F - 57.2 °F 94% 29.95 in - Calm Calm - N/A   Clear
10:00 AM 62.6 °F - 57.2 °F 82% 29.95 in - Variable 2.3 mph - N/A   Clear
10:30 AM 64.4 °F - 57.2 °F 77% 29.95 in - Variable 3.5 mph - N/A   Clear
11:00 AM 64 °F - 56 °F 67% 29.97 in 9 mi WSW 4.5 mph - -  
11:00 AM 64.4 °F - 55.4 °F 73% 29.95 in - Variable 3.5 mph - N/A   Clear
11:30 AM 64.4 °F - 55.4 °F 73% 29.95 in - Variable 3.5 mph - N/A   Clear
12:00 PM 66.2 °F - 55.4 °F 68% 29.95 in - SW 4.6 mph - N/A   Clear
12:30 PM 66.2 °F - 55.4 °F 68% 29.95 in - Variable 3.5 mph - N/A   Clear
1:00 PM 66.2 °F - 55.4 °F 68% 29.95 in - SW 5.8 mph - N/A   Clear
1:30 PM 66.2 °F - 53.6 °F 64% 29.92 in 6.2 mi WSW 6.9 mph - N/A   Partly Cloudy
2:00 PM 67 °F - 53 °F 50% 29.94 in 7 mi WSW 6.7 mph - -  
2:00 PM 66.2 °F - 51.8 °F 60% 29.92 in - WSW 6.9 mph - N/A   Clear
2:30 PM 66.2 °F - 50.0 °F 56% 29.92 in - SW 5.8 mph - N/A   Clear
3:00 PM 66.2 °F - 50.0 °F 56% 29.92 in - SW 4.6 mph - N/A   Clear
3:30 PM 66.2 °F - 48.2 °F 52% 29.89 in - SW 5.8 mph - N/A   Clear
4:00 PM 66.2 °F - 46.4 °F 49% 29.89 in - SW 4.6 mph - N/A   Clear
4:30 PM 66.2 °F - 48.2 °F 52% 29.89 in - Variable 2.3 mph - N/A   Clear
5:00 PM 65 °F - 49 °F 47% 29.90 in 6 mi SW 4.5 mph - -  
5:00 PM 64.4 °F - 50.0 °F 59% 29.89 in - SW 5.8 mph - N/A   Clear
5:30 PM 64.4 °F - 48.2 °F 56% 29.89 in - Variable 1.2 mph - N/A   Clear
6:00 PM 60.8 °F - 48.2 °F 63% 29.89 in - Calm Calm - N/A   Clear
6:30 PM 55.4 °F - 48.2 °F 77% 29.89 in 5.0 mi Variable 2.3 mph - N/A   Unknown
7:00 PM 53.6 °F - 48.2 °F 82% 29.89 in 5.0 mi Variable 2.3 mph - N/A   Unknown
7:30 PM 50.0 °F - 46.4 °F 87% 29.89 in 5.6 mi Variable 2.3 mph - N/A   Unknown
8:00 PM 51 °F - 47 °F 83% 29.91 in 6 mi NE 2.2 mph - -   Clear
8:00 PM 51.8 °F - 48.2 °F 88% 29.89 in - Variable 2.3 mph - N/A   Clear
8:30 PM 48.2 °F - 44.6 °F 87% 29.89 in - ENE 4.6 mph - N/A   Clear
9:00 PM 50.0 °F - 46.4 °F 87% 29.89 in - ENE 4.6 mph - N/A   Clear
9:30 PM 51.8 °F - 48.2 °F 88% 29.89 in - Variable 2.3 mph - N/A   Clear
10:00 PM 51.8 °F - 48.2 °F 88% 29.89 in - Variable 2.3 mph - N/A   Clear
10:30 PM 50.0 °F - 48.2 °F 94% 29.89 in 6.2 mi ENE 4.6 mph - N/A   Partly Cloudy
11:00 PM 51 °F - 49 °F 91% 29.92 in 7 mi ENE 4.5 mph - -   Mostly Cloudy
11:00 PM 51.8 °F - 50.0 °F 94% 29.89 in 6.2 mi ENE 4.6 mph - N/A   Mostly Cloudy
11:30 PM 51.8 °F - 50.0 °F 94% 29.89 in 6.2 mi ENE 4.6 mph - N/A   Mostly Cloudy